Date,TemperatureHighF,TemperatureAvgF,TemperatureLowF,DewpointHighF,DewpointAvgF,DewpointLowF,HumidityHigh,HumidityAvg,HumidityLow,PressureMaxIn,PressureMinIn,WindSpeedMaxMPH,WindSpeedAvgMPH,GustSpeedMaxMPH,PrecipitationSumIn
2013-1-1,47.5,-10.8,-13.0,-7.3,-16.8,-19.0,75,74,73,30.23,28.99,2,0,2,0.00
2013-1-2,25.3,18.9,12.9,13.4,11.0,6.1,85,71,58,30.09,29.99,8,3,8,0.00
2013-1-3,24.4,17.9,8.1,18.9,13.1,3.2,86,81,78,30.18,30.03,9,5,9,0.00
2013-1-4,40.1,19.5,3.2,26.3,12.3,-0.3,90,74,59,30.14,30.01,10,3,10,0.00
2013-1-5,36.1,19.7,3.9,26.2,14.4,-0.9,87,80,65,30.17,29.86,11,3,11,0.00
2013-1-6,31.1,20.9,5.9,23.1,15.3,1.1,90,79,69,30.23,29.89,8,3,8,0.00
2013-1-7,39.7,24.1,5.9,27.0,17.3,1.6,88,76,58,30.19,29.92,9,4,9,0.00
2013-1-8,41.0,28.2,10.0,31.4,23.3,6.4,92,82,66,30.05,29.86,15,4,15,0.00
2013-1-9,40.6,32.1,21.7,31.8,22.4,15.9,89,68,53,30.40,29.86,17,6,17,0.00
2013-1-10,39.0,30.3,15.4,33.5,25.6,12.5,98,83,59,30.45,29.99,17,7,17,0.17
2013-1-11,43.0,38.3,34.2,42.7,38.1,33.9,99,99,99,29.82,29.54,9,3,9,0.06
2013-1-12,42.8,29.1,15.8,42.5,24.1,8.7,99,82,67,30.00,29.51,17,8,17,0.01
2013-1-13,36.7,12.6,9.7,27.8,5.4,1.6,79,72,68,30.14,29.95,15,6,15,0.00
2013-1-14,19.8,10.3,1.8,9.4,4.0,-2.2,85,76,62,30.39,30.20,11,4,11,0.00
2013-1-15,31.5,16.9,1.4,18.8,9.2,-3.1,89,73,53,30.37,30.13,10,3,10,0.00
2013-1-16,32.0,25.4,18.9,29.1,18.8,6.5,89,76,56,30.11,29.71,13,6,13,0.00
2013-1-17,36.7,16.7,8.6,5.7,1.9,-15.7,63,52,46,30.35,30.13,15,6,15,0.00
2013-1-18,44.1,27.9,7.2,32.9,22.4,1.7,93,80,64,30.35,29.75,11,4,11,0.01
2013-1-19,45.5,25.6,9.3,36.1,17.0,-2.0,99,70,51,29.94,29.61,37,12,40,0.01
2013-1-20,12.6,5.9,1.4,-3.3,-5.9,-7.6,67,58,44,30.29,30.02,18,6,18,0.00
2013-1-21,25.0,-3.2,-7.1,15.3,-15.6,-19.0,71,54,48,30.22,30.11,23,7,23,0.00
2013-1-22,3.0,-5.1,-11.7,-11.7,-15.3,-19.5,70,61,48,30.32,30.25,9,4,9,0.00
2013-1-23,16.7,8.0,-6.3,10.0,0.7,-13.6,76,71,66,30.26,30.05,24,6,24,0.00
2013-1-24,6.4,-3.9,-6.9,-3.5,-11.4,-14.1,74,70,63,30.63,30.47,4,2,4,0.00
2013-1-25,28.2,17.5,10.8,19.3,10.2,5.0,77,72,70,30.14,30.00,15,6,15,0.09
2013-1-26,48.4,15.5,-5.6,19.2,5.9,-11.1,82,66,54,30.37,30.22,9,3,9,0.00
2013-1-27,33.6,28.1,21.4,32.3,24.3,11.8,99,87,63,30.26,29.88,28,4,28,0.00
2013-1-28,35.6,32.6,30.6,33.8,32.0,30.3,99,98,92,29.93,29.74,4,0,4,0.05
2013-1-29,42.1,36.0,32.7,41.8,35.7,32.5,99,99,99,29.71,29.52,11,4,11,0.08
2013-1-30,32.7,25.8,14.2,32.5,25.0,10.1,99,97,84,29.57,29.40,21,6,21,0.01
2013-1-31,24.8,6.1,0.0,6.2,-0.4,-6.1,85,74,59,30.07,29.62,17,7,17,0.00
2013-2-1,7.3,-1.9,-11.4,-3.1,-10.7,-17.9,78,66,50,30.26,30.10,11,5,11,0.00
2013-2-2,15.6,5.5,-2.6,1.3,-2.7,-11.1,80,69,50,30.11,29.98,9,2,9,0.00
2013-2-3,20.1,10.2,0.1,5.7,1.9,-5.6,85,69,53,29.99,29.91,12,4,12,0.00
2013-2-4,22.1,10.9,-0.4,4.7,0.3,-6.4,80,63,37,30.00,29.93,9,2,9,0.00
2013-2-5,26.6,15.5,-1.5,22.6,10.2,-9.0,89,79,69,30.08,29.70,12,4,12,0.00
2013-2-6,29.3,13.6,-4.4,23.6,8.9,-10.6,95,81,69,30.17,30.04,9,3,9,0.00
2013-2-7,28.8,26.4,24.1,28.5,25.9,22.6,99,98,94,30.15,29.99,11,5,11,0.00
2013-2-8,31.5,17.9,4.3,22.0,11.3,-1.6,93,76,52,30.37,30.17,9,3,9,0.08
2013-2-9,26.1,16.7,-0.9,23.5,13.7,-5.9,92,88,79,30.35,30.07,10,4,10,0.00
2013-2-10,35.8,31.8,25.0,35.5,31.2,24.0,99,98,92,30.05,29.33,24,9,24,0.09
2013-2-11,35.2,29.8,24.4,35.0,27.6,19.7,99,91,80,29.96,29.30,18,9,18,0.06
2013-2-12,35.2,24.9,19.0,23.9,18.6,14.5,85,77,62,30.04,29.85,14,4,14,0.00
2013-2-13,41.7,30.6,16.9,29.9,25.8,15.7,98,83,60,29.81,29.65,6,1,6,0.00
2013-2-14,34.3,29.9,24.4,32.7,24.9,17.4,99,82,65,29.98,29.55,20,4,20,0.00
2013-2-15,25.2,13.6,3.2,8.5,3.3,-4.7,79,64,47,30.19,30.06,13,4,13,0.00
2013-2-16,22.8,9.7,-8.7,2.6,-3.8,-17.3,76,55,39,30.18,30.12,13,2,13,0.00
2013-2-17,63.9,-2.1,-15.5,52.4,-10.6,-25.7,72,66,44,30.17,30.07,12,2,12,0.00
2013-2-18,44.8,31.0,20.5,32.5,25.3,14.1,93,80,62,29.85,29.50,13,6,13,0.00
2013-2-19,21.4,10.0,5.9,19.3,-0.0,-5.6,93,64,47,30.14,29.56,23,8,23,0.00
2013-2-20,28.9,15.9,-0.4,10.9,3.8,-7.0,76,59,45,30.36,30.19,12,4,12,0.00
2013-2-21,23.5,13.8,-1.8,20.1,7.4,-7.6,92,75,65,30.44,30.11,20,6,20,0.00
2013-2-22,32.4,25.5,21.0,29.1,23.8,19.4,97,93,85,30.10,29.79,16,6,16,0.00
2013-2-23,36.3,26.7,23.5,25.0,22.6,19.5,97,85,62,29.92,29.79,9,4,9,0.05
2013-2-24,42.1,25.8,11.1,28.3,19.5,8.3,91,78,57,30.11,29.93,6,2,6,0.02
2013-2-25,40.8,27.4,15.6,28.1,21.4,12.2,91,79,59,30.13,30.05,3,1,3,0.00
2013-2-26,32.9,27.7,20.3,28.3,24.5,18.0,98,88,75,30.06,29.80,21,7,21,0.01
2013-2-27,32.0,30.8,29.1,30.0,27.3,24.2,95,87,78,29.83,29.71,17,8,17,0.00
2013-2-28,34.0,30.2,24.1,28.2,23.0,15.0,91,75,64,30.16,29.86,11,7,11,0.00
2013-3-1,36.5,25.1,10.0,17.1,13.5,2.5,72,62,45,30.26,30.17,13,5,13,0.00
2013-3-2,38.1,17.7,5.9,14.7,6.0,-0.3,78,61,38,30.27,30.15,11,3,11,0.00
2013-3-3,23.5,7.2,-2.2,10.6,-0.0,-8.6,78,72,57,30.16,30.13,8,2,8,0.00
2013-3-4,34.3,22.8,7.9,18.8,12.5,-2.5,73,65,50,30.11,30.03,17,8,17,0.00
2013-3-5,31.5,26.0,24.1,27.2,21.6,17.0,93,83,74,30.15,29.96,11,6,11,0.00
2013-3-6,42.4,25.4,6.3,25.6,18.1,0.0,87,75,48,30.31,30.17,12,4,12,0.05
2013-3-7,43.2,20.4,-2.2,23.6,10.0,-8.5,80,65,44,30.40,30.31,5,2,5,0.00
2013-3-8,47.8,29.5,9.1,29.1,20.6,4.6,87,70,47,30.42,30.27,10,4,10,0.00
2013-3-9,39.2,34.0,28.9,34.8,30.9,23.8,99,89,78,30.23,29.81,10,5,10,0.30
2013-3-10,39.6,36.3,32.9,38.4,36.0,32.5,99,99,97,29.86,29.72,27,5,27,0.33
2013-3-12,31.5,26.1,20.1,24.8,21.3,14.1,97,82,70,30.04,29.76,16,4,16,0.00
2013-3-13,42.8,24.0,14.5,14.4,10.8,7.0,85,60,29,30.28,30.05,16,5,16,0.01
2013-3-14,44.1,24.8,7.5,30.6,17.1,2.9,90,73,59,30.28,30.02,5,2,5,0.01
2013-3-15,39.2,30.5,23.2,34.8,28.8,21.5,99,93,84,30.01,29.83,15,4,15,0.08
2013-3-16,38.5,24.4,16.5,25.8,16.8,9.1,99,74,47,30.13,29.86,12,5,12,0.01
2013-3-17,34.9,18.7,5.9,17.2,8.4,-0.3,77,65,48,30.28,30.01,15,6,15,0.01
2013-3-18,34.9,23.1,15.8,30.8,19.4,10.2,91,85,76,30.01,29.56,23,7,23,0.00
2013-3-19,34.9,19.5,11.5,11.5,7.7,2.3,84,62,36,30.01,29.66,18,10,18,0.00
2013-3-20,28.4,12.7,3.2,4.8,-2.0,-7.2,65,52,36,30.06,30.01,16,7,16,0.00
2013-3-21,38.8,14.9,-3.3,13.5,2.4,-10.1,77,59,35,30.06,30.00,9,3,9,0.00
2013-3-22,46.9,20.7,-0.4,18.6,7.4,-7.3,76,59,32,30.06,30.00,10,2,10,0.00
2013-3-23,45.1,29.5,12.4,24.1,17.7,6.5,84,63,41,30.13,30.05,11,3,11,0.00
2013-3-24,36.0,31.0,26.4,24.2,22.3,20.0,81,70,58,30.08,29.86,17,6,17,0.00
2013-3-25,38.5,30.3,20.3,25.0,20.5,14.9,84,67,53,30.13,29.91,13,7,13,0.00
2013-3-26,43.7,34.5,27.0,25.6,21.4,18.5,75,60,44,30.25,30.13,11,4,11,0.00
2013-3-27,49.6,36.0,27.9,25.6,21.1,17.8,79,57,33,30.31,30.26,11,3,11,0.00
2013-3-28,54.3,33.0,15.4,23.8,18.8,12.0,86,60,29,30.34,30.27,8,2,8,0.00
2013-3-29,57.6,35.8,16.9,26.7,21.3,13.6,87,60,30,30.32,30.19,6,2,6,0.00
2013-3-30,48.0,40.3,30.6,41.3,34.3,23.6,99,81,60,30.19,29.82,9,3,9,0.18
2013-3-31,42.4,35.9,34.3,40.9,34.6,27.5,99,95,82,29.82,29.72,15,5,15,0.00
2013-4-1,36.5,27.7,20.1,15.0,12.3,9.7,64,53,36,30.17,29.95,14,6,14,0.00
2013-4-2,43.5,28.0,17.8,15.2,12.3,10.3,73,54,31,30.32,30.17,19,5,19,0.00
2013-4-3,53.1,32.0,13.3,20.8,15.2,8.8,84,54,27,30.45,30.21,9,3,9,0.00
2013-4-4,56.3,41.1,29.3,35.6,25.8,19.0,73,55,39,30.19,29.98,11,5,11,0.00
2013-4-5,49.8,35.3,20.7,29.4,22.2,16.9,92,62,34,30.26,30.10,11,4,11,0.00
2013-4-6,47.1,39.0,30.2,46.7,35.0,28.7,99,86,68,30.10,29.53,21,9,21,0.17
2013-4-7,52.2,39.3,34.5,39.2,35.0,32.4,99,85,61,29.96,29.65,11,4,11,0.00
2013-4-8,38.8,36.7,35.1,37.9,35.1,32.4,99,94,86,29.95,29.75,11,4,11,0.02
2013-4-9,40.5,37.1,34.3,40.2,36.8,34.1,99,99,99,30.07,29.95,20,7,20,0.60
2013-4-10,35.8,33.1,29.8,35.5,32.4,27.1,99,97,75,30.13,29.95,13,3,13,0.38
2013-4-11,33.8,32.3,29.8,33.4,30.1,24.3,99,92,70,29.95,29.65,34,12,34,0.24
2013-4-12,38.5,33.8,29.7,34.9,32.0,29.4,99,93,85,29.75,29.58,7,2,7,0.08
2013-4-13,37.4,33.3,27.5,31.5,28.6,26.4,99,83,75,29.96,29.75,14,4,14,0.01
2013-4-14,34.9,30.2,25.0,32.8,27.5,23.8,97,90,85,30.00,29.91,14,6,14,0.00
2013-4-15,79.3,45.8,34.9,45.7,33.7,28.6,99,65,45,29.92,29.59,28,8,28,0.19
2013-4-16,55.2,39.0,27.7,34.8,29.4,23.5,84,70,45,30.32,29.96,10,4,10,0.00
2013-4-17,39.7,36.9,26.4,38.5,34.3,23.1,98,90,75,30.34,29.93,27,10,27,0.12
2013-4-18,41.0,38.3,36.5,40.7,38.1,36.2,99,99,99,29.87,29.57,11,5,11,0.20
2013-4-19,37.9,32.9,29.3,35.5,26.5,20.1,99,78,58,29.84,29.27,23,11,23,0.01
2013-4-20,53.2,32.3,18.7,21.2,16.4,13.6,89,54,28,30.35,29.93,17,6,17,0.00
2013-4-21,49.6,35.9,28.2,41.3,29.7,15.5,99,79,58,30.45,30.19,14,6,14,0.14
2013-4-22,50.2,46.4,43.7,49.9,45.0,39.5,99,95,80,30.20,29.98,8,3,8,0.17
2013-4-23,47.3,38.3,26.8,47.0,33.7,23.4,99,85,67,30.03,29.89,15,6,15,0.06
2013-4-24,54.9,39.1,22.1,36.4,26.8,21.1,98,66,37,30.04,29.93,12,4,12,0.00
2013-4-25,57.2,41.2,29.7,37.0,32.4,24.1,99,74,41,30.25,29.93,14,5,14,0.02
2013-4-26,76.5,55.2,30.4,50.0,39.6,25.5,82,59,37,30.23,30.06,17,6,17,0.01
2013-4-27,78.4,59.9,45.5,54.4,48.8,40.0,99,69,42,30.18,30.01,14,5,14,0.00
2013-4-28,65.3,51.4,37.9,52.3,45.4,36.9,99,82,56,30.01,29.77,7,2,7,0.00
2013-4-29,77.7,62.8,51.3,61.4,54.5,43.3,99,76,55,29.82,29.68,11,4,11,0.02
2013-4-30,89.8,76.1,57.9,64.6,60.3,53.2,99,62,40,29.79,29.62,21,8,21,0.00
2013-5-1,69.3,56.5,42.3,51.0,45.2,34.6,95,67,46,30.32,29.95,18,8,18,0.00
2013-5-2,42.4,38.2,33.3,35.9,33.3,30.6,93,83,74,30.38,30.30,14,8,14,0.01
2013-5-3,43.3,37.6,32.4,43.1,37.2,30.9,99,99,91,30.29,30.06,11,4,11,0.46
2013-5-4,76.8,56.6,42.8,60.8,50.0,42.5,99,82,49,30.09,30.03,13,5,13,0.13
2013-5-5,79.0,66.4,42.6,54.9,49.7,41.6,99,59,37,30.11,30.02,14,5,14,0.00
2013-5-6,83.3,59.6,38.7,51.5,44.6,37.9,99,64,31,30.12,30.01,10,2,10,0.00
2013-5-7,85.1,67.3,41.2,51.5,43.6,39.0,94,48,25,30.08,29.99,17,4,17,0.00
2013-5-8,85.5,65.5,42.6,53.2,46.1,38.1,87,54,27,30.05,29.95,8,2,8,0.00
2013-5-9,63.3,56.3,45.1,57.1,53.8,44.9,99,92,64,30.00,29.95,14,4,14,0.71
2013-5-10,72.1,51.2,40.6,51.7,45.7,40.4,99,84,45,30.04,29.91,8,4,8,0.06
2013-5-11,50.7,45.9,43.5,48.3,39.0,30.6,99,78,52,30.06,29.81,26,10,26,0.02
2013-5-12,50.9,42.2,33.4,29.5,25.3,22.2,71,52,39,30.13,30.07,23,10,23,0.00
2013-5-13,67.5,49.1,24.3,36.6,29.6,19.0,85,50,29,30.17,29.91,10,3,10,0.00
2013-5-14,90.9,77.3,42.1,58.7,52.7,34.6,84,45,34,29.83,29.51,18,5,18,0.00
2013-5-15,78.3,70.6,61.5,58.1,47.2,42.4,64,45,31,29.88,29.52,14,5,14,0.00
2013-5-16,85.6,65.5,44.8,56.2,49.3,41.2,95,60,33,30.03,29.86,12,4,12,0.00
2013-5-17,64.0,55.3,48.0,56.5,52.1,37.7,99,90,50,30.13,30.01,18,7,18,0.45
2013-5-18,82.9,68.9,50.0,71.0,63.3,49.7,99,83,64,30.09,29.93,14,4,14,0.01
2013-5-19,78.8,67.7,60.4,71.3,65.5,60.2,99,93,75,29.94,29.82,16,4,16,0.00
2013-5-20,84.0,73.1,61.2,69.1,65.9,60.9,99,81,57,29.80,29.61,20,7,20,0.28
2013-5-21,76.1,68.4,59.0,70.0,63.5,58.7,99,85,65,29.70,29.58,11,4,11,0.38
2013-5-22,62.1,57.7,51.6,61.8,57.4,51.3,99,99,99,29.86,29.67,13,3,13,0.72
2013-5-23,69.8,53.4,43.7,51.2,43.5,35.6,99,73,38,30.32,29.88,14,6,14,0.12
2013-5-24,71.6,52.7,31.8,46.2,40.0,31.1,99,66,38,30.45,30.29,10,2,10,0.00
2013-5-25,70.2,58.0,47.8,46.3,43.7,39.9,89,61,41,30.39,30.28,12,4,12,0.00
2013-5-26,62.2,53.3,41.7,45.0,41.3,37.2,84,65,52,30.32,30.18,14,5,14,0.00
2013-5-27,64.8,56.4,53.4,56.9,47.2,40.9,93,72,59,30.19,30.00,27,8,27,0.00
2013-5-28,61.3,55.7,50.9,61.1,55.4,50.6,99,99,99,29.92,29.74,8,4,8,0.28
2013-5-29,86.4,68.3,56.3,74.6,64.9,56.0,99,91,61,29.89,29.79,11,3,11,0.65
2013-5-30,82.9,70.5,62.8,77.9,69.3,62.5,99,96,78,29.85,29.69,14,6,14,0.41
2013-5-31,84.6,71.2,61.9,71.5,66.2,61.6,99,85,59,29.75,29.65,14,6,14,0.00
2013-6-1,79.7,71.9,53.4,69.2,62.3,53.1,99,73,53,29.70,29.61,17,5,17,0.00
2013-6-2,64.4,53.2,45.5,51.8,44.6,40.6,95,73,55,30.03,29.77,16,7,16,0.00
2013-6-3,75.6,58.0,39.0,54.7,47.9,38.8,99,73,43,30.09,30.01,8,2,8,0.00
2013-6-4,56.3,54.3,51.3,56.0,52.6,50.0,99,94,81,30.20,30.07,8,4,8,0.71
2013-6-5,62.2,53.9,50.9,62.0,53.6,50.6,99,99,95,30.16,29.98,12,6,12,0.44
2013-6-6,56.7,53.0,50.7,56.4,52.8,50.4,99,99,99,30.01,29.95,8,4,8,0.20
2013-6-7,71.8,59.7,51.4,60.5,55.6,51.2,99,88,60,30.03,29.94,8,2,8,0.01
2013-6-8,60.8,56.6,52.7,60.5,56.4,52.4,99,99,99,30.01,29.94,9,2,9,0.01
2013-6-9,59.4,55.9,53.8,57.5,55.4,53.5,99,98,94,30.02,29.96,14,6,14,0.01
2013-6-10,80.4,68.4,57.9,71.1,65.1,57.6,99,90,70,29.88,29.81,5,2,5,0.01
2013-6-11,80.4,69.8,54.1,73.3,66.0,53.9,99,88,74,29.93,29.83,5,1,5,0.00
2013-6-12,81.0,67.7,63.0,74.1,66.2,62.5,99,95,77,29.94,29.74,14,4,14,0.17
2013-6-13,80.6,67.5,58.1,63.4,60.3,56.9,99,80,52,30.10,29.83,13,4,13,0.00
2013-6-14,79.5,69.8,51.4,63.3,59.5,51.2,99,72,54,30.17,30.00,10,2,10,0.00
2013-6-15,80.6,67.9,59.9,75.5,66.3,59.6,99,95,83,30.06,29.81,11,3,11,0.74
2013-6-16,82.6,72.3,54.0,70.2,62.2,53.7,99,74,46,29.92,29.87,13,3,13,0.01
2013-6-17,82.9,69.2,56.5,66.5,61.9,56.2,99,80,50,30.02,29.88,9,3,9,0.00
2013-6-18,76.5,63.3,52.5,59.6,53.6,46.2,99,73,47,30.13,30.02,12,5,12,0.00
2013-6-19,79.0,64.4,46.6,65.0,55.9,46.3,99,77,52,30.17,30.06,8,2,8,0.00
2013-6-20,88.3,72.1,56.5,70.4,63.8,56.2,99,78,53,30.13,30.03,8,3,8,0.00
2013-6-21,79.7,70.5,63.9,74.6,68.7,63.6,99,94,81,30.06,29.82,16,3,16,0.65
2013-6-22,73.6,68.7,65.7,73.2,68.4,65.4,99,99,99,30.11,29.95,19,4,19,0.12
2013-6-23,73.6,66.7,64.8,73.2,66.5,64.5,99,99,99,29.99,29.81,9,4,9,0.20
2013-6-24,83.1,74.6,66.4,79.8,73.0,66.1,100,95,84,29.99,29.85,10,2,10,0.00
2013-6-25,84.4,73.6,65.3,78.6,72.1,65.0,100,95,83,29.91,29.80,10,2,10,0.06
2013-6-26,86.4,76.4,69.4,79.5,74.2,69.1,99,94,75,29.81,29.72,8,2,8,0.00
2013-6-27,85.1,74.0,64.9,77.1,69.9,64.7,99,88,63,29.82,29.71,25,2,25,0.24
2013-6-28,73.9,67.1,60.1,70.4,65.9,59.8,99,96,84,29.76,29.67,9,3,9,0.24
2013-6-29,65.5,62.9,60.3,65.2,62.6,60.0,99,99,99,29.78,29.70,9,3,9,0.05
2013-6-30,77.4,67.7,55.2,60.8,57.4,52.9,92,71,53,30.04,28.83,11,4,11,0.00
2013-7-1,82.8,67.6,53.1,69.0,60.4,52.8,99,81,50,30.19,30.10,11,2,11,0.14
2013-7-2,78.8,67.3,55.2,63.8,58.4,51.8,100,76,49,30.17,30.09,9,4,9,0.00
2013-7-3,72.9,63.3,50.2,67.4,59.8,49.9,100,89,69,30.13,30.03,8,2,8,0.01
2013-7-4,84.6,70.4,56.8,72.1,65.0,56.6,100,85,61,30.08,30.00,8,2,8,0.00
2013-7-5,88.9,78.8,40.8,73.9,67.7,30.0,99,71,55,30.05,29.96,16,4,16,0.00
2013-7-6,88.3,78.0,63.9,75.7,71.8,62.2,100,82,61,30.02,29.98,11,4,11,0.00
2013-7-7,90.3,81.3,67.8,81.2,76.5,67.5,100,86,66,29.97,29.89,14,3,14,0.00
2013-7-8,90.0,81.3,69.6,82.1,77.9,69.3,100,90,71,29.99,29.86,13,4,13,1.35
2013-7-9,83.3,75.8,67.1,82.0,75.4,66.8,100,99,94,30.01,29.79,8,3,8,0.21
2013-7-10,77.0,70.9,59.0,71.7,64.7,58.7,99,82,61,30.05,29.84,13,4,13,0.00
2013-7-11,80.4,68.7,55.6,69.4,64.7,55.3,99,88,63,30.14,30.05,9,2,9,0.00
2013-7-12,85.5,76.2,57.4,71.1,66.8,57.1,100,75,54,30.17,30.07,12,3,12,0.00
2013-7-13,83.3,71.9,60.4,72.2,66.5,60.2,100,84,65,30.17,30.08,11,2,11,0.00
2013-7-14,88.7,75.8,58.8,76.1,70.4,58.5,100,85,58,30.25,30.18,5,1,6,0.00
2013-7-15,90.9,78.8,65.3,81.3,74.5,65.0,99,88,70,30.30,30.22,10,2,10,0.00
2013-7-16,91.2,81.9,71.8,85.3,79.4,71.5,100,92,75,30.29,30.22,4,1,4,0.01
2013-7-17,93.2,83.8,71.2,83.8,77.2,70.9,100,82,61,30.30,30.17,8,2,8,0.00
2013-7-18,95.2,86.8,72.0,81.8,77.3,70.2,99,75,62,30.17,29.86,12,4,12,0.00
2013-7-19,91.6,82.9,71.4,80.1,71.4,33.8,99,69,52,29.86,29.76,14,4,14,0.56
2013-7-20,83.5,73.2,59.7,70.4,65.6,59.4,99,79,58,29.98,29.86,11,3,11,0.08
2013-7-21,73.2,64.9,58.8,68.1,63.0,58.5,99,94,73,30.01,29.92,11,4,11,0.30
2013-7-22,101.5,78.5,59.4,79.4,74.5,33.2,100,88,78,29.93,29.63,14,4,14,0.01
2013-7-23,73.0,66.7,59.0,72.1,58.3,52.7,97,76,57,30.03,29.75,13,6,13,0.00
2013-7-24,76.6,62.8,47.3,60.9,55.3,47.0,100,79,51,30.11,30.03,7,1,7,0.00
2013-7-25,82.0,67.0,52.5,72.1,63.9,52.2,100,91,68,30.06,29.96,11,3,11,0.00
2013-7-26,77.4,67.1,56.7,73.3,62.5,51.9,100,87,56,29.99,29.86,12,4,12,0.00
2013-7-27,60.1,55.5,47.8,57.4,51.5,46.7,100,87,76,29.99,29.88,10,4,10,0.00
2013-7-28,67.3,59.8,49.8,59.7,56.4,49.6,100,89,74,29.94,29.87,13,4,13,0.00
2013-7-29,77.7,64.1,50.0,64.2,58.0,49.7,100,83,61,30.17,30.04,7,3,7,0.00
2013-7-30,79.5,67.1,54.7,68.4,62.2,54.4,99,86,62,30.19,30.09,6,2,6,0.00
2013-7-31,80.4,68.1,59.7,73.1,66.5,59.4,100,95,70,30.08,29.96,8,2,8,0.00
2013-8-1,78.4,66.0,52.9,63.9,59.5,52.6,100,82,54,30.02,29.90,9,2,9,0.00
2013-8-2,79.3,73.2,55.9,68.8,60.1,55.7,99,66,50,29.95,29.85,11,4,11,0.00
2013-8-3,86.7,70.7,49.8,61.2,55.3,49.6,99,60,47,30.14,30.02,16,4,16,0.00
2013-8-4,75.7,63.2,49.3,59.8,54.9,49.0,100,77,47,30.26,30.11,7,2,7,0.00
2013-8-5,74.3,64.5,52.7,68.6,62.7,52.2,100,94,80,30.11,29.85,7,2,7,0.00
2013-8-6,84.7,73.2,62.8,74.6,68.0,62.5,99,86,55,29.88,29.74,8,2,8,0.00
2013-8-7,77.4,66.1,56.8,71.2,62.4,56.3,100,89,64,30.03,29.77,11,3,11,0.01
2013-8-8,78.8,64.4,47.3,64.7,56.8,47.0,99,80,51,30.07,30.00,5,1,5,0.00
2013-8-9,78.4,68.7,59.4,68.1,61.1,56.9,100,79,52,30.10,29.99,10,3,10,0.00
2013-8-10,83.8,68.2,56.3,62.3,59.2,54.5,100,74,55,30.19,30.11,11,2,11,0.00
2013-8-11,73.2,64.3,53.6,72.0,63.9,53.3,100,99,93,30.14,30.04,9,2,9,0.26
2013-8-12,80.1,66.5,56.5,72.7,62.4,56.2,99,88,57,30.06,29.94,8,2,8,0.04
2013-8-13,70.9,62.0,46.9,56.4,52.2,46.7,100,72,53,30.17,30.06,11,3,11,0.00
2013-8-14,76.8,59.5,42.1,57.9,52.1,41.8,100,80,52,30.24,30.13,7,2,7,0.00
2013-8-15,79.9,65.3,51.8,63.3,56.8,51.5,99,78,47,30.17,30.09,7,2,7,0.00
2013-8-16,84.0,65.9,48.7,63.1,56.5,48.5,99,76,44,30.21,30.15,10,2,10,0.00
2013-8-17,86.4,76.6,50.5,66.9,61.7,50.3,100,62,44,30.26,30.16,10,2,10,0.00
2013-8-18,76.5,64.3,52.0,67.1,61.7,51.7,100,92,72,30.22,30.18,9,2,9,0.00
2013-8-19,85.3,70.1,53.6,70.2,63.9,53.3,100,83,56,30.10,30.00,8,2,8,0.00
2013-8-20,90.1,80.3,62.1,75.5,72.1,61.8,100,77,61,30.05,29.96,15,4,15,0.00
2013-8-21,92.8,82.0,69.3,80.9,75.9,69.0,100,83,66,30.00,29.89,18,5,18,0.07
2013-8-22,86.5,70.8,61.9,72.4,64.7,61.3,100,84,47,30.14,30.02,9,2,9,0.01
2013-8-23,87.8,71.1,55.9,67.6,62.2,55.7,99,77,48,30.21,30.12,6,2,6,0.00
2013-8-24,88.3,80.0,57.9,76.4,70.5,57.6,100,74,52,30.25,30.12,14,4,14,0.00
2013-8-25,95.5,86.8,73.6,81.0,77.8,68.2,100,76,60,30.16,30.03,15,5,15,0.00
2013-8-26,95.2,82.6,72.5,82.8,76.2,69.6,100,82,63,30.15,29.93,10,4,10,0.00
2013-8-27,97.2,90.1,74.8,82.3,80.2,74.5,100,74,60,29.94,29.80,10,3,10,0.00
2013-8-28,89.4,82.5,71.8,80.1,75.2,71.5,99,80,65,30.06,29.91,10,3,10,0.00
2013-8-29,92.8,84.1,64.6,81.4,76.6,64.3,99,79,64,30.11,29.95,11,3,11,0.00
2013-8-30,88.0,80.8,68.4,82.7,75.0,45.7,100,83,65,29.95,29.85,16,5,16,0.00
2013-8-31,89.4,72.5,58.1,73.0,66.8,57.8,100,84,58,29.93,28.62,11,3,11,0.00
2013-9-1,86.0,75.9,66.2,85.8,72.1,65.9,100,89,59,29.82,29.76,14,4,14,0.00
2013-9-2,73.4,66.2,57.2,65.0,57.4,55.1,100,74,58,30.04,29.89,14,5,14,0.00
2013-9-3,78.8,59.8,41.7,58.7,52.2,41.5,100,79,49,30.12,30.01,8,2,8,0.00
2013-9-4,86.4,72.7,48.7,71.9,65.0,48.5,100,78,61,30.12,30.04,7,2,7,0.00
2013-9-5,82.4,68.8,58.6,65.2,58.7,53.7,99,73,43,30.31,30.17,11,5,11,0.00
2013-9-6,90.3,71.2,53.1,73.5,62.1,49.9,92,74,56,30.22,29.95,6,2,6,0.00
2013-9-7,93.7,78.6,67.8,76.7,71.7,67.4,100,82,58,30.03,29.89,13,3,13,0.00
2013-9-8,79.9,73.1,59.5,68.6,63.9,57.5,96,74,60,30.13,29.96,19,8,19,0.00
2013-9-9,94.1,83.5,62.8,82.7,77.3,62.5,99,82,67,29.97,29.72,15,4,15,0.01
2013-9-10,94.8,87.6,70.0,76.2,73.8,68.8,100,65,54,29.92,29.78,11,4,11,0.00
2013-9-11,89.8,79.5,67.1,69.5,67.6,57.7,100,69,49,30.06,29.96,12,3,12,0.00
2013-9-12,72.5,62.1,53.1,59.5,54.3,45.3,100,78,51,30.20,29.99,14,4,14,0.00
2013-9-13,69.1,53.8,39.6,49.1,42.9,38.7,100,70,43,30.28,30.15,10,2,10,0.00
2013-9-14,76.3,58.0,36.9,53.7,47.0,36.0,100,70,44,30.16,29.98,10,2,10,0.00
2013-9-15,68.5,60.0,54.3,64.1,58.0,53.6,100,93,77,30.23,29.96,15,4,15,0.01
2013-9-16,69.1,55.8,37.0,49.8,44.7,36.8,100,71,44,30.44,30.31,11,4,11,0.72
2013-9-17,58.5,50.0,39.6,58.2,49.4,39.3,100,98,93,30.36,30.08,8,2,8,0.05
2013-9-18,82.4,73.5,57.0,74.6,68.9,56.7,99,86,75,30.07,29.84,12,4,12,0.04
2013-9-19,81.7,75.9,67.6,79.4,75.1,67.3,100,97,91,29.85,29.68,14,4,14,0.11
2013-9-20,68.4,62.8,57.9,66.5,61.4,57.7,100,95,80,29.84,29.73,11,3,11,0.02
2013-9-21,53.4,50.4,47.3,53.0,50.0,47.0,99,98,93,29.92,29.86,13,2,13,0.00
2013-9-22,46.9,40.6,35.1,46.5,40.3,34.8,99,99,99,30.09,30.00,6,2,6,0.00
2013-9-23,72.7,55.8,41.4,58.5,50.7,41.1,100,85,58,30.13,30.03,14,5,14,0.00
2013-9-24,78.4,58.5,41.4,61.0,52.3,41.1,99,83,53,30.06,29.97,8,4,8,0.00
2013-9-25,75.4,57.2,42.1,59.1,51.8,41.8,100,85,57,30.05,29.97,10,3,10,0.00
2013-9-26,80.4,62.2,42.6,63.9,55.1,42.4,99,79,53,30.09,30.01,10,4,10,0.00
2013-9-27,85.5,65.8,48.2,64.8,55.9,47.9,100,74,42,30.13,30.00,9,4,9,0.00
2013-9-28,81.3,65.3,54.7,68.4,60.5,51.6,100,86,58,30.02,29.78,19,6,19,0.37
2013-9-29,73.9,54.7,40.5,61.0,51.6,40.2,100,91,53,30.06,29.96,10,2,10,0.01
2013-9-30,76.6,58.9,45.9,56.8,51.2,45.6,99,79,48,29.97,29.78,14,4,14,0.00
2013-10-1,80.2,65.4,48.9,65.3,58.7,44.9,99,81,55,29.99,29.77,9,4,9,0.00
2013-10-2,78.6,67.4,37.4,54.6,49.5,37.1,100,57,38,30.12,29.99,8,2,8,0.00
2013-10-3,72.7,61.3,52.9,65.2,57.1,44.2,100,88,55,29.95,29.85,11,5,11,0.28
2013-10-4,58.3,56.9,55.8,58.0,56.6,55.5,99,99,99,30.04,29.91,18,8,18,0.12
2013-10-5,104.2,63.8,56.5,70.6,63.6,55.5,99,99,99,30.00,29.72,15,6,15,0.98
2013-10-6,59.9,50.6,41.0,53.9,46.8,40.7,99,88,64,29.76,29.68,6,2,6,0.01
2013-10-7,69.8,52.2,41.2,54.2,47.4,40.9,99,86,50,30.06,29.73,8,3,8,0.01
2013-10-8,76.8,56.6,38.3,58.6,48.6,38.0,99,78,50,30.11,30.02,7,3,7,0.00
2013-10-9,77.7,58.9,46.6,59.7,52.7,46.3,100,82,54,30.19,30.09,9,2,9,0.00
2013-10-10,77.4,60.4,40.3,58.8,51.6,40.0,99,76,50,30.16,30.04,9,3,10,0.00
2013-10-11,76.5,61.3,46.0,66.6,56.7,45.8,100,86,63,30.05,29.88,18,6,18,0.00
2013-10-12,64.8,62.5,60.6,61.7,58.4,55.2,96,87,71,29.92,29.83,9,4,9,0.00
2013-10-13,63.9,51.1,36.1,46.1,40.8,34.5,100,71,45,30.40,30.17,19,4,19,0.00
2013-10-14,61.0,45.8,28.9,47.2,39.8,28.7,100,82,55,30.43,30.14,14,4,14,0.00
2013-10-15,56.7,52.6,45.9,56.2,52.1,44.5,100,98,95,30.13,29.72,14,5,14,0.98
2013-10-16,52.2,49.5,46.9,50.8,48.1,46.6,99,95,87,29.88,29.75,11,4,11,0.00
2013-10-17,57.4,44.1,32.4,47.6,40.5,32.1,100,89,61,29.91,29.78,4,1,4,0.00
2013-10-18,47.5,42.7,35.4,45.6,40.6,35.2,100,93,81,29.93,29.77,14,2,14,0.00
2013-10-19,54.7,40.0,27.3,45.4,38.4,27.1,100,95,54,29.88,29.68,5,2,5,0.02
2013-10-20,43.2,40.3,32.5,42.9,40.1,32.3,99,99,99,29.83,29.67,12,3,12,0.09
2013-10-21,41.0,35.7,32.7,40.7,28.3,24.2,100,75,60,29.91,29.75,14,5,14,0.01
2013-10-22,48.6,36.3,26.8,35.9,29.2,25.2,100,77,51,29.98,29.89,10,3,10,0.00
2013-10-23,41.0,33.3,23.7,32.6,28.4,22.2,97,82,69,30.01,29.95,8,2,8,0.00
2013-10-24,44.4,36.2,31.5,32.0,29.2,26.9,92,76,58,30.27,30.02,11,4,11,0.00
2013-10-25,50.7,41.4,29.1,37.3,32.8,27.3,100,74,54,30.31,29.77,20,4,20,0.00
2013-10-26,50.9,45.6,40.8,40.6,34.1,30.8,88,64,50,30.05,29.72,24,6,24,0.00
2013-10-27,47.8,37.4,25.5,35.8,32.0,22.2,100,82,60,30.02,29.92,12,3,12,0.00
2013-10-28,33.3,33.1,32.7,23.5,23.4,23.3,68,67,67,30.43,30.42,4,3,4,0.00
2013-10-29,45.7,35.9,25.2,40.2,32.4,21.6,100,87,79,30.43,30.13,11,4,11,0.00
2013-10-30,52.9,49.4,37.2,52.6,49.2,37.0,99,99,99,30.13,29.82,10,4,10,0.02
2013-10-31,55.8,50.8,44.8,55.5,50.5,44.5,99,99,99,29.73,29.31,12,4,12,0.06
2013-11-1,46.6,42.6,38.1,46.3,42.3,37.9,100,99,97,29.76,29.32,8,4,8,0.02
2013-11-2,42.8,37.7,27.3,41.8,37.3,27.1,100,98,94,30.15,29.76,6,2,6,0.00
2013-11-3,49.8,38.4,24.1,43.1,35.0,23.8,99,88,69,30.26,30.14,13,5,13,0.00
2013-11-4,51.3,45.6,41.2,46.3,42.7,39.1,99,90,74,30.16,29.98,11,6,11,0.02
2013-11-5,52.3,42.9,33.3,47.8,42.0,33.0,99,97,79,30.25,29.84,10,3,10,0.78
2013-11-6,43.5,38.0,34.5,41.6,32.7,26.3,99,82,62,30.08,29.77,13,6,13,0.17
2013-11-7,39.4,32.4,20.7,32.6,28.1,20.4,100,85,71,30.19,30.14,11,3,11,0.00
2013-11-8,41.2,32.2,18.5,38.6,29.9,18.3,99,92,79,30.25,29.73,14,4,14,0.12
2013-11-9,46.0,42.0,39.0,44.2,35.8,29.0,99,79,65,29.99,29.67,24,9,24,0.02
2013-11-10,45.9,40.6,37.4,32.3,30.5,28.3,78,67,57,30.30,30.08,17,6,17,0.00
2013-11-11,48.6,27.9,24.3,34.8,17.5,4.0,99,65,50,30.48,30.05,22,9,22,0.02
2013-11-12,39.0,21.5,13.6,13.3,11.4,9.2,83,65,50,30.70,30.53,14,4,14,0.00
2013-11-13,46.2,30.9,15.4,31.2,20.5,10.4,86,66,53,30.51,29.98,11,5,11,0.00
2013-11-14,50.5,42.0,31.1,37.2,29.3,20.6,76,61,51,29.94,29.82,8,4,8,0.00
2013-11-15,53.1,40.5,23.7,42.6,35.2,23.2,100,82,63,29.90,29.83,10,2,10,0.00
2013-11-16,53.6,46.6,36.9,53.2,46.2,34.7,100,98,88,29.83,29.36,21,7,21,0.57
2013-11-17,50.7,48.6,42.8,50.5,48.3,42.5,99,99,99,29.44,29.33,3,2,3,0.01
2013-11-23,17.4,12.9,4.5,5.5,2.0,-1.4,78,61,50,30.69,30.65,23,7,24,0.00
2013-11-24,27.5,16.1,-0.2,10.0,5.4,-3.9,88,64,44,30.66,30.17,18,5,18,0.00
2013-11-25,44.1,30.5,23.4,36.6,23.4,9.2,86,75,50,30.11,29.93,12,6,12,0.00
2013-11-26,34.2,19.3,12.7,26.7,7.7,2.6,75,60,50,30.23,29.96,21,8,21,0.00
2013-11-27,134.6,23.4,6.6,99.9,13.3,-2.9,88,66,52,30.27,30.15,8,2,8,0.00
2013-11-28,55.6,22.9,20.5,48.5,17.5,14.2,88,80,74,30.17,30.11,7,2,7,0.00
2013-11-29,30.6,17.8,3.2,21.4,12.4,-0.3,91,80,66,30.56,30.27,8,2,8,0.00
2013-11-30,43.5,35.7,25.2,32.0,28.3,19.6,88,75,62,30.26,29.99,10,2,10,0.00
2013-12-1,47.1,30.6,17.6,32.6,25.8,16.5,100,83,65,30.16,28.94,8,2,8,0.00
2013-12-2,39.4,32.3,16.7,35.1,29.3,15.5,100,89,79,29.97,29.75,21,7,21,0.00
2013-12-3,33.1,32.2,31.3,32.8,32.0,31.0,99,99,99,29.77,29.70,20,9,20,0.11
2013-12-4,38.1,32.8,29.8,37.9,32.6,29.6,99,99,99,29.79,29.41,13,7,13,0.19
2013-12-5,31.1,15.3,5.0,30.9,10.1,1.0,99,80,67,30.26,29.58,17,5,17,0.00
2013-12-6,10.9,6.0,-0.4,2.7,-0.4,-3.3,88,74,65,30.50,30.26,13,5,13,0.00
2013-12-7,8.8,1.8,-5.8,-1.2,-5.2,-9.1,85,72,60,30.66,30.54,11,2,11,0.00
2013-12-8,10.0,7.7,-3.1,7.8,5.2,-6.7,91,89,84,30.57,30.06,12,4,12,0.00
2013-12-9,23.5,3.2,-5.8,10.4,-3.5,-17.0,95,73,61,30.10,29.92,21,6,21,0.00
2013-12-10,14.9,6.8,-6.9,6.7,-0.5,-10.9,88,72,63,30.11,29.81,17,7,17,0.00
2013-12-11,12.9,-0.4,-12.8,6.1,-9.5,-21.8,88,65,55,30.46,30.18,13,5,13,0.00
2013-12-12,25.3,13.5,-6.5,14.6,6.9,-11.8,83,75,66,30.40,30.14,9,3,9,0.00
2013-12-13,42.3,15.0,8.2,15.9,8.7,0.9,85,76,70,30.26,30.13,18,7,18,0.00
2013-12-14,57.7,20.0,11.8,53.9,16.2,7.5,92,85,78,30.24,29.96,12,3,12,0.00
2013-12-15,13.1,2.8,-3.8,10.2,-5.4,-12.9,88,68,55,30.10,29.93,17,6,17,0.00
2013-12-16,10.8,6.2,-12.3,6.8,1.4,-18.8,87,80,70,30.12,29.97,5,1,5,0.00
2013-12-17,32.5,24.3,13.6,29.6,20.3,13.2,100,85,74,30.01,29.82,25,6,25,0.00
2013-12-18,32.9,23.9,-0.6,23.0,16.6,-4.3,89,74,61,30.06,29.68,11,3,11,0.00
2013-12-19,26.8,20.3,13.3,22.9,17.8,10.8,100,90,84,30.00,29.76,15,5,15,0.00
2013-12-20,24.3,20.8,17.6,22.5,19.6,16.6,100,95,89,29.96,29.83,8,4,8,0.00
2013-12-21,26.4,24.0,21.4,26.2,23.8,21.1,99,99,99,29.92,29.82,9,2,9,0.00
2013-12-22,28.8,23.7,19.9,24.8,21.7,19.3,100,92,79,30.04,29.80,11,3,11,0.00
2013-12-23,20.3,10.8,-3.1,20.1,8.4,-6.0,100,90,80,30.40,30.11,5,2,5,0.00
2013-12-24,15.8,2.8,-18.0,11.6,-1.3,-22.6,90,82,77,30.48,30.24,8,2,8,0.00
2013-12-25,37.4,14.7,3.6,33.6,12.4,2.1,94,90,85,30.20,30.05,5,2,5,0.00
2013-12-26,30.2,18.5,6.8,25.3,15.5,4.2,95,88,80,30.17,30.05,6,1,6,0.00
2013-12-27,36.0,21.7,1.2,31.8,19.7,-1.7,100,92,84,30.20,29.91,7,2,7,0.02
2013-12-28,43.7,32.3,14.0,37.3,29.5,12.8,100,90,74,30.00,29.71,12,2,12,0.12
2013-12-29,34.5,10.9,-2.9,33.2,3.5,-10.1,100,72,63,30.19,29.72,21,9,21,0.00
2013-12-30,3.0,-6.5,-21.1,-9.3,-15.8,-27.0,76,64,53,30.29,30.17,5,1,5,0.00
2013-12-31,6.3,-1.4,-13.0,-3.0,-8.2,-19.7,83,72,61,30.36,30.13,9,3,9,0.00
2014-1-1,40.8,2.9,-14.3,26.4,-5.6,-20.4,77,67,55,30.41,30.32,14,4,14,0.00
2014-1-2,9.5,-0.5,-11.7,-2.1,-9.6,-19.1,77,65,53,30.39,30.30,12,2,12,0.00